Flag for Austria Weather past 2 weeks in Murau, Styria, Austria

Now
39 °F

Overcast.


Feels Like: 37 °F
Forecast: 24 / 31 °F
Wind: 3 mph from Northeast

Location: Zeltweg

Current Time: Mar 4, 2015 at 6:51:01 PM

Latest Report: Mar 4, 2015 at 5:50 PM


Visibility: 25 mi

Pressure: 30.21 "Hg

Humidity: 42%

Dew point: 18 °F

Location of MurauLocation

Historic Weather in Murau — Graph

°F

Murau temperature yesterday

Maximum temperature yesterday: 46 °F (at 3:50 PM)
Minimum temperature yesterday: 28 °F (at 9:50 PM)
Average temperature yesterday: 39 °F

Past Weeks' High & Low Weather Summary

 TemperatureHumidityPressure
High50 °F (Mar 2, 1:20 PM)100% (Feb 19, 4:50 AM)30.66 "Hg (Feb 19, 4:50 AM)
Low16 °F (Feb 19, 4:50 AM)23% (Mar 3, 4:20 PM)29.56 "Hg (Feb 23, 1:50 PM)
Average37 °F69%29.99 "Hg
* Reported Feb 17 4:20 PM — Mar 4 4:50 PM, Murau, Weather by CustomWeather, © 2015

Note: Actual official high and low records may vary slightly from our data, if they occured in-between our weather recording intervals... More about our weather records

Advertising

Murau weather history for previous 24 hours

 ConditionsComfort  
Time TempWeatherWind HumidityBarometerVisibility
4:50 PM
Wed, Mar 4
41 °FPartly sunny.6 mph39%30.18 "Hg31 mi
4:20 PM43 °FBroken clouds.8 mph36%30.15 "Hg31 mi
3:50 PM43 °FBroken clouds.9 mph36%30.15 "Hg31 mi
3:20 PM43 °FBroken clouds.14 mph36%30.15 "Hg31 mi
2:50 PM45 °FPartly sunny.17 mph31%30.15 "Hg37 mi
2:20 PM46 °FPartly sunny.10 mph32%30.15 "Hg37 mi
1:50 PM46 °FPartly sunny.6 mph37%30.15 "Hg37 mi
1:20 PM46 °FBroken clouds.3 mph40%30.15 "Hg37 mi
12:50 PM45 °FScattered clouds.5 mph42%30.15 "Hg37 mi
12:20 PM45 °FScattered clouds.3 mph42%30.18 "Hg37 mi
11:50 AM43 °FScattered clouds.2 mph46%30.18 "Hg37 mi
11:20 AM39 °FPassing clouds.3 mph52%30.18 "Hg37 mi
10:50 AM39 °FPassing clouds.2 mph52%30.18 "Hg37 mi
10:20 AM36 °FPassing clouds.3 mph60%30.18 "Hg25 mi
9:50 AM34 °FPassing clouds.3 mph60%30.18 "Hg25 mi
9:20 AM32 °FScattered clouds.2 mph64%30.18 "Hg25 mi
8:50 AM30 °FScattered clouds.3 mph75%30.18 "Hg25 mi
8:20 AM30 °FScattered clouds.2 mph75%30.18 "Hg25 mi
7:50 AM25 °FScattered clouds.2 mph86%30.18 "Hg25 mi
7:20 AM23 °FScattered clouds.2 mph86%30.15 "Hg25 mi
6:50 AM23 °FScattered clouds.1 mph86%30.15 "Hg25 mi
5:50 AM21 °FPassing clouds.2 mph93%30.15 "Hg19 mi
4:50 AM23 °FPassing clouds.3 mph80%30.15 "Hg19 mi
9:50 PM
Tue, Mar 3
28 °FClear.2 mph74%30.21 "Hg19 mi
8:50 PM30 °FClear.1 mph64%30.21 "Hg25 mi
8:20 PM32 °FClear.2 mph60%30.21 "Hg25 mi
7:50 PM34 °FClear.2 mph51%30.18 "Hg25 mi
7:20 PM34 °FClear.2 mph51%30.18 "Hg25 mi
6:50 PM37 °FPassing clouds.3 mph41%30.18 "Hg25 mi
6:20 PM37 °FPassing clouds.2 mph41%30.18 "Hg25 mi
Weather by CustomWeather, © 2015

See weather overviewHow to use our weather pages